This is the latest recevied weather packets stored in our database for station/object VE4GLS. If no packets are shown the sender has not sent any weather packets the latest 10 day(s).
| Time | Temp. | Humidity | Pressure | Rain* | Wind** | Luminosity | Snow |
|---|---|---|---|---|---|---|---|
| 1778223755 | 5.56° C | 48% | 1003.4 hPa | 0 mm | - | - | - |
| 1778223695 | 5.56° C | 48% | 1003.4 hPa | 0 mm | - | - | - |
| 1778223094 | 5° C | 48% | 1003.6 hPa | 0 mm | - | - | - |
| 1778222854 | 5° C | 48% | 1003.5 hPa | 0 mm | - | - | - |
| 1778222494 | 5° C | 49% | 1003.7 hPa | 0 mm | - | - | - |
| 1778221954 | 5° C | 49% | 1003.8 hPa | 0 mm | - | - | - |
| 1778221894 | 5° C | 49% | 1003.8 hPa | 0 mm | - | - | - |
| 1778221296 | 4.44° C | 51% | 1003.9 hPa | 0 mm | - | - | - |
| 1778221056 | 4.44° C | 51% | 1003.9 hPa | 0 mm | - | - | - |
| 1778220695 | 3.89° C | 50% | 1003.9 hPa | 0 mm | - | - | - |
| 1778220155 | 3.89° C | 51% | 1004.1 hPa | 0 mm | - | - | - |
| 1778220095 | 3.89° C | 51% | 1004.2 hPa | 0 mm | - | - | - |
| 1778219495 | 3.33° C | 52% | 1004.1 hPa | 0 mm | - | - | - |
| 1778219255 | 3.33° C | 52% | 1004.2 hPa | 0 mm | - | - | - |
| 1778218895 | 2.78° C | 52% | 1004.2 hPa | 0 mm | - | - | - |
| 1778218355 | 2.78° C | 51% | 1004.3 hPa | 0 mm | - | - | - |
| 1778218295 | 2.78° C | 51% | 1004.2 hPa | 0 mm | - | - | - |
| 1778217694 | 2.78° C | 50% | 1004.4 hPa | 0 mm | - | - | - |
| 1778217454 | 2.78° C | 49% | 1004.4 hPa | 0 mm | - | - | - |
| 1778217095 | 3.33° C | 49% | 1004.5 hPa | 0 mm | - | - | - |
| 1778216555 | 3.33° C | 51% | 1004.5 hPa | 0 mm | - | - | - |
| 1778216495 | 3.33° C | 51% | 1004.5 hPa | 0 mm | - | - | - |
| 1778215895 | 3.89° C | 50% | 1004.6 hPa | 0 mm | - | - | - |
| 1778215655 | 3.89° C | 51% | 1004.7 hPa | 0 mm | - | - | - |
| 1778215295 | 3.89° C | 51% | 1004.7 hPa | 0 mm | - | - | - |
* Rain latest hour (hover to see other rain measurements)
** Current wind speed in m/s (hover to see current wind gust speed)